LiveATC.Net - Listen to live air traffic control over the Internet!


ICAO: KVCB  IATA: VCB   Airport: Nut Tree Airport
City: Vacaville   State/Province: California
Country: United States   Continent: North America
KVCB METAR Weather: KVCB 121221Z AUTO 18004KT 1 3/4SM BR OVC003 11/11 A3023 RMK AO2 T01110106
KVCB Flight Activity (FlightAware)
KVCB Webcam:  (Airport Webcams) 
KVCB Airport Info   (iFlightPlanner)
KVCB VFR Sectional Chart   (iFlightPlanner) 
KVCB IFR Low Chart   (iFlightPlanner) 

KVCB CTAF/App
Feed Status: UP   Listeners: 0
Listen in your browser - HTML5 player (in browser, HTML5)
Click here to listen with your own player (launches your MP3 player)
Archive Access: KVCB CTAF/App
FacilityFrequency
Nut Tree CTAF/UNICOM122.850
Travis Approach128.400

NOTICE

Unauthorized use prohibited. See LiveATC.net Terms of Service


Airport/ARTCC Code
Frequency Search
(e.g., 124.400, 128.75)
Site-wide search
 


Browse Feeds
Top 50 Feeds
Coverage Map
Bad Weather Areas

LiveATC FAQ
Offer LiveATC feed
Contact LiveATC.net
Press Inquiries

LiveATC on iPhone
LiveATC on Android

Windows Phone
Windows 8/10

LiveATC Mobile
(Mobile browser)

ATC Audio Archives
Interesting Recordings

LiveATC Forums


Home Page
About LiveATC.net
Make a Donation
Terms of Use
Privacy Policy

Canadian Air Freqs

AIRMETs/SIGMETs

FAA Airport Status
Nat'l Airspace Status
Arrival Demand Charts


Server Software By:
Icecast.org
Liquidsoap